User: anonymous   Login
Location: Goheenville
(40.9070°N, 79.3720°W)
Time: 16:41:25
(UTC-04:00)
Language:

NOAA 11 - Orbit

View from above orbital plane
View from above orbital plane
View from above satellite
View from above satellite

Ground track
Ground track

The orbit data is extracted from the following two-line orbital elements,

1 19531U 88089A   17142.81091797 -.00000019 +00000-0 +11542-4 0  9997
2 19531 098.5534 202.3171 0012352 109.5603 250.6906 14.15208077478910
Epoch (UTC): 22 May 2017 19:27:43
Eccentricity: 0.0012352
inclination: 98.5534°
perigee height: 832 km
apogee height: 850 km
right ascension of ascending node: 202.3171°
argument of perigee: 109.5603°
revolutions per day: 14.15208077
mean anomaly at epoch: 250.6906°
orbit number at epoch: 47891

The dashed part of the orbit path shows where the satellite is in the earth's shadow,  

DLR